AirNav   Duncan Aviation - Near you to keep you 
flying
 
 1537 users online  

37WI Docken Field Airport
Mount Horeb, Wisconsin, USA

GOING TO MOUNT HOREB?


FAA INFORMATION EFFECTIVE 15 JULY 2021

Location

FAA Identifier: 37WI
Lat/Long: 42-59-27.9900N 089-45-12.4420W
42-59.466500N 089-45.207367W
42.9911083,-89.7534561
(estimated)
Elevation: 1230 ft. / 375 m (estimated)
Variation: 00E (1985)
From city: 2 miles SW of MOUNT HOREB, WI
Time zone: UTC -5 (UTC -6 during Standard Time)
Zip code: 53572

Airport Operations

Airport use: Private use. Permission required prior to landing
Activation date: 11/1978
Control tower: no
ARTCC: CHICAGO CENTER
FSS: GREEN BAY FLIGHT SERVICE STATION
Attendance: UNATNDD
Segmented circle: no

Airport Communications

WX AWOS-3 at C29 (12 nm NE): 118.675 (608-833-1686)

Nearby radio navigation aids

VOR radial/distance  VOR name  Freq  Var
MSNr240/20.3MADISON VORTAC108.6003E
DLLr176/33.6DELLS VORTAC117.0003E
JVLr309/38.6JANESVILLE VOR/DME114.3003E

Airport Services

Runway Information

Runway 15/33

Dimensions: 1800 x 75 ft. / 549 x 23 m
Surface: turf
RUNWAY 15  RUNWAY 33
Traffic pattern: leftleft

Airport Ownership and Management from official FAA records

Ownership: Privately-owned
Owner: ORVILLE DOCKEN
2513 SAND ROCK RD RT 2
MOUNT HOREB, WI 53572
Phone 608-437-3120
Manager: ORVILLE DOCKEN
2513 SAND ROCK RD RT 2
MOUNT HOREB, WI 53572
Phone 608-437-3120

Airport Operational Statistics

Aircraft based on the field: 1
Single engine airplanes: 1
    

Additional Remarks

FOR CD CTC CHICAGO ARTCC AT 630-906-8921.

Instrument Procedures

There are no published instrument procedures at 37WI.

Some nearby airports with instrument procedures:

C29 - Middleton Municipal Airport - Morey Field (12 nm NE)
91C - Sauk-Prairie Airport (18 nm N)
KMSN - Dane County Regional Airport-Truax Field (20 nm NE)
KMRJ - Iowa County Airport (22 nm W)
KLNR - Tri-County Regional Airport (23 nm NW)
 
Loc | Ops | Rwys | IFR | FBO | Links
Com | Nav | Svcs | Stats | Notes
Area around 37WI (Docken Field Airport)
 
Road maps at: MapQuest Bing Google
 
Aerial photo
No photo
 
Sectional chart

 
Airport distance calculator
Flying to Docken Field Airport? Find the distance to fly.

From to 37WI

Sunrise and sunset
Times for 02-Aug-2021
 Local
(UTC-5)
 Zulu
(UTC)
Morning civil twilight05:2010:20
Sunrise05:5210:52
Sunset20:1901:19
Evening civil twilight20:5101:51

Current date and time
Zulu (UTC)  02-Aug-2021 14:55:42
Local (UTC-5)  02-Aug-2021 09:55:42
 
METAR
KC29 
12nm NE 
021435Z AUTO 32003KT 10SM CLR 21/13 A3020 RMK AO1 T02050133
KMSN 
20nm NE 
021353Z 25004KT 10SM BKN060 19/12 A3019 RMK AO2 SLP222 T01940122
KMRJ 
21nm W 
021435Z AUTO 00000KT 10SM CLR 19/11 A3021 RMK AO2
KLNR 
23nm NW 
021356Z AUTO 25004KT 10SM CLR 17/14 A3020 RMK AO2 SLP222 T01670144
TAF
KMSN 
20nm NE 
021136Z 0212/0312 31004KT P6SM SCT060 FM021600 31005KT P6SM SCT050 TEMPO 0218/0222 BKN050 FM030100 VRB03KT P6SM SCT060 FM030500 00000KT P6SM FEW200
NOTAMs
Click for the latest NOTAMs
NOTAMs are issued by the DoD/FAA and will open in a separate window not controlled by AirNav.

 

 
 

Would you like to see your business listed on this page?

 If your business provides an interesting product or service to pilots, flight crews, aircraft, or users of the Docken Field Airport, you should consider listing it here.  To start the listing process, click on the button below
 
Add a business
 

Other Pages about Docken Field Airport

Update a link
 
Copyright © AirNav, LLC. All rights reserved. Privacy Policy  Contact